GW4412 Weather Reports


time (UTC)temp
F
wind
direction
speed
knots
gust
knots
rain 1hr
in
rain 24hr
in
rain mn
in
humidity
%
barometer
mb
20260906090013 90 270 0.0 0.0 0.00 0.00 0.00 31 1019.0
20260906085512 90 192 2.6 2.6 0.00 0.00 0.00 31 1019.0
20260906085012 92 293 0.0 0.0 0.00 0.00 0.00 30 1019.0
20260906084512 90 252 1.7 1.7 0.00 0.00 0.00 31 1018.0
20260906084012 89 174 0.0 0.0 0.00 0.00 0.00 30 1019.0
20260906083512 90 270 1.7 1.7 0.00 0.00 0.00 30 1019.0
20260906083012 90 262 1.7 1.7 0.00 0.00 0.00 31 1019.0
20260906082513 89 162 1.7 1.7 0.00 0.00 0.00 32 1019.0
20260906082012 89 247 0.0 0.0 0.00 0.00 0.00 33 1019.0
20260906081512 88 276 3.5 3.5 0.00 0.00 0.00 33 1019.0
20260906081012 88 274 0.0 0.0 0.00 0.00 0.00 32 1019.0
20260906080512 87 180 0.0 0.0 0.00 0.00 0.00 33 1019.0
20260906080013 87 180 0.0 0.0 0.00 0.00 0.00 34 1019.0
20260906075512 85 184 0.0 0.0 0.00 0.00 0.00 35 1019.0
20260906075012 85 273 0.0 0.0 0.00 0.00 0.00 37 1019.0
20260906074512 85 270 0.0 0.0 0.00 0.00 0.00 36 1019.0
20260906074012 85 280 0.0 0.0 0.00 0.00 0.00 37 1019.0
20260906073512 85 108 0.0 0.0 0.00 0.00 0.00 35 1019.0
20260906073013 84 186 0.0 0.0 0.00 0.00 0.00 36 1019.0
20260906072512 86 253 0.0 0.0 0.00 0.00 0.00 34 1018.0
20260906072012 85 357 0.0 0.0 0.00 0.00 0.00 35 1019.0
20260906071512 84 357 0.0 0.0 0.00 0.00 0.00 36 1019.0
20260906071012 85 191 0.0 0.0 0.00 0.00 0.00 37 1018.0
20260906070512 85 198 0.0 0.0 0.00 0.00 0.00 37 1018.0
20260906070012 85 294 0.0 0.0 0.00 0.00 0.00 38 1018.0
20260906065512 84 152 0.0 0.0 0.00 0.00 0.00 40 1018.0
20260906065012 84 152 0.0 0.0 0.00 0.00 0.00 38 1018.0
20260906064512 84 152 0.0 0.0 0.00 0.00 0.00 37 1018.0
20260906064013 84 95 0.0 0.0 0.00 0.00 0.00 36 1018.0
20260906063512 83 270 0.0 0.0 0.00 0.00 0.00 35 1018.0
20260906063012 82 270 0.0 0.0 0.00 0.00 0.00 36 1018.0
20260906062512 81 270 0.0 0.0 0.00 0.00 0.00 37 1018.0
20260906062012 80 270 0.0 0.0 0.00 0.00 0.00 37 1018.0
20260906061512 79 270 0.0 0.0 0.00 0.00 0.00 39 1018.0
20260906061012 79 270 0.0 0.0 0.00 0.00 0.00 39 1018.0
20260906060513 78 270 0.0 0.0 0.00 0.00 0.00 40 1018.0
20260906060012 78 12 0.0 0.0 0.00 0.00 0.00 40 1018.0
20260906055512 76 12 0.0 0.0 0.00 0.00 0.00 42 1018.0
20260906055012 76 158 0.0 0.0 0.00 0.00 0.00 43 1018.0
20260906054512 75 158 0.0 0.0 0.00 0.00 0.00 43 1018.0
20260906054013 75 158 0.0 0.0 0.00 0.00 0.00 43 1018.0
20260906053512 74 158 0.0 0.0 0.00 0.00 0.00 44 1018.0
20260906053012 74 158 0.0 0.0 0.00 0.00 0.00 45 1018.0
20260906052512 73 159 0.0 0.0 0.00 0.00 0.00 45 1018.0
20260906052012 72 158 0.0 0.0 0.00 0.00 0.00 46 1018.0
20260906051514 72 157 0.0 0.0 0.00 0.00 0.00 47 1018.0
20260906051012 71 281 0.0 0.0 0.00 0.00 0.00 48 1018.0
20260906050512 70 282 0.0 0.0 0.00 0.00 0.00 48 1018.0
20260906050012 69 163 0.0 0.0 0.00 0.00 0.00 50 1018.0
20260906045512 69 163 0.0 0.0 0.00 0.00 0.00 51 1018.0
20260906045111 69 198 0.0 0.0 0.00 0.00 0.00 51 1018.0
20260906044512 69 192 0.0 0.0 0.00 0.00 0.00 51 1018.0
20260906044012 69 2 0.0 0.0 0.00 0.00 0.00 52 1017.0
20260906043512 68 2 0.0 0.0 0.00 0.00 0.00 52 1018.0
20260906043016 68 357 0.0 0.0 0.00 0.00 0.00 52 1018.0
20260906042512 68 290 0.0 0.0 0.00 0.00 0.00 52 1018.0
20260906042012 68 277 0.0 0.0 0.00 0.00 0.00 53 1017.0
20260906041513 68 277 0.0 0.0 0.00 0.00 0.00 53 1017.0
20260906041012 68 6 0.0 0.0 0.00 0.00 0.00 53 1017.0
20260906040512 69 6 0.0 0.0 0.00 0.00 0.00 53 1017.0
20260906040012 68 6 0.0 0.0 0.00 0.00 0.00 52 1017.0
20260906035512 68 6 0.0 0.0 0.00 0.00 0.00 52 1017.0
20260906035012 68 6 0.0 0.0 0.00 0.00 0.00 52 1017.0
20260906034512 69 6 0.0 0.0 0.00 0.00 0.00 52 1017.0
20260906034013 69 6 0.0 0.0 0.00 0.00 0.00 52 1017.0
20260906033512 69 136 0.0 0.0 0.00 0.00 0.00 52 1017.0
20260906033012 69 133 0.0 0.0 0.00 0.00 0.00 52 1017.0
20260906032512 69 349 0.0 0.0 0.00 0.00 0.00 52 1017.0
20260906032013 69 349 0.0 0.0 0.00 0.00 0.00 52 1017.0
20260906031512 69 276 0.0 0.0 0.00 0.00 0.00 51 1017.0
20260906031012 69 276 0.0 0.0 0.00 0.00 0.00 51 1017.0
20260906030512 69 313 0.0 0.0 0.00 0.00 0.00 52 1017.0
20260906030012 69 313 0.0 0.0 0.00 0.00 0.00 51 1017.0
20260906025511 69 129 0.0 0.0 0.00 0.00 0.00 51 1017.0
20260906025013 69 129 0.0 0.0 0.00 0.00 0.00 50 1017.0
20260906024512 69 129 0.0 0.0 0.00 0.00 0.00 51 1017.0
20260906024012 69 129 0.0 0.0 0.00 0.00 0.00 51 1017.0
20260906023512 69 129 0.0 0.0 0.00 0.00 0.00 51 1017.0
20260906023012 70 129 0.0 0.0 0.00 0.00 0.00 50 1017.0
20260906022514 70 129 0.0 0.0 0.00 0.00 0.00 50 1017.0
20260906022013 70 343 0.0 0.0 0.00 0.00 0.00 50 1017.0
20260906021512 70 343 0.0 0.0 0.00 0.00 0.00 49 1017.0
20260906021012 71 343 0.0 0.0 0.00 0.00 0.00 49 1017.0
20260906020512 71 343 0.0 0.0 0.00 0.00 0.00 49 1017.0
20260906020013 71 343 0.0 0.0 0.00 0.00 0.00 49 1017.0
20260906015513 71 343 0.0 0.0 0.00 0.00 0.00 49 1017.0
20260906015013 71 343 0.0 0.0 0.00 0.00 0.00 48 1017.0
20260906014034 71 180 0.0 0.0 0.00 0.00 0.00 49 1017.0
20260906013512 70 180 0.0 0.0 0.00 0.00 0.00 48 1017.0
20260906013013 70 300 0.0 0.0 0.00 0.00 0.00 49 1017.0
20260906012512 71 300 0.0 0.0 0.00 0.00 0.00 48 1017.0
20260906012012 71 300 0.0 0.0 0.00 0.00 0.00 48 1017.0
20260906011512 71 300 0.0 0.0 0.00 0.00 0.00 49 1017.0
20260906011012 71 300 0.0 0.0 0.00 0.00 0.00 48 1017.0
20260906010512 71 300 0.0 0.0 0.00 0.00 0.00 48 1017.0
20260906010012 71 300 0.0 0.0 0.00 0.00 0.00 48 1017.0
20260906005512 72 300 0.0 0.0 0.00 0.00 0.00 47 1017.0
20260906005012 72 300 0.0 0.0 0.00 0.00 0.00 47 1017.0
20260906004513 72 300 0.0 0.0 0.00 0.00 0.00 46 1017.0
20260906004012 72 300 0.0 0.0 0.00 0.00 0.00 46 1017.0
20260906003512 72 267 0.0 0.0 0.00 0.00 0.00 46 1017.0
20260906003013 73 307 0.0 0.0 0.00 0.00 0.00 46 1017.0
20260906002512 73 307 0.0 0.0 0.00 0.00 0.00 46 1017.0
20260906002012 74 307 0.0 0.0 0.00 0.00 0.00 45 1017.0
20260906001513 74 314 0.0 0.0 0.00 0.00 0.00 45 1017.0
20260906001012 74 344 0.0 0.0 0.00 0.00 0.00 44 1017.0
20260906000512 74 343 0.0 0.0 0.00 0.00 0.00 44 1017.0
20260906000012 75 114 0.0 0.0 0.00 0.00 0.00 44 1017.0
20260905235512 75 114 0.0 0.0 0.00 0.00 0.00 43 1017.0
20260905235012 75 114 0.0 0.0 0.00 0.00 0.00 42 1017.0
20260905234513 75 351 0.0 0.0 0.00 0.00 0.00 43 1017.0
20260905234013 76 351 0.0 0.0 0.00 0.00 0.00 42 1017.0
20260905233512 76 351 0.0 0.0 0.00 0.00 0.00 41 1017.0
20260905233012 76 351 0.0 0.0 0.00 0.00 0.00 41 1017.0
20260905232512 76 350 0.0 0.0 0.00 0.00 0.00 41 1017.0
20260905232012 75 350 0.0 0.0 0.00 0.00 0.00 42 1017.0
20260905231513 75 350 0.0 0.0 0.00 0.00 0.00 43 1017.0
20260905231012 75 351 0.0 0.0 0.00 0.00 0.00 43 1018.0
20260905230511 75 351 0.0 0.0 0.00 0.00 0.00 43 1017.0
20260905230012 75 351 0.0 0.0 0.00 0.00 0.00 43 1018.0
20260905225512 76 351 0.0 0.0 0.00 0.00 0.00 43 1017.0
20260905225013 76 351 0.0 0.0 0.00 0.00 0.00 42 1018.0
20260905224512 76 350 0.0 0.0 0.00 0.00 0.00 42 1017.0
20260905224012 76 350 0.0 0.0 0.00 0.00 0.00 42 1018.0
20260905223512 76 351 0.0 0.0 0.00 0.00 0.00 43 1018.0
20260905223012 76 350 0.0 0.0 0.00 0.00 0.00 43 1018.0
20260905222512 75 350 0.0 0.0 0.00 0.00 0.00 44 1017.0
20260905222013 75 351 0.0 0.0 0.00 0.00 0.00 44 1017.0
20260905221513 75 351 0.0 0.0 0.00 0.00 0.00 43 1017.0
20260905221012 75 350 0.0 0.0 0.00 0.00 0.00 44 1017.0
20260905220512 75 350 0.0 0.0 0.00 0.00 0.00 43 1018.0
20260905220013 75 351 0.0 0.0 0.00 0.00 0.00 43 1017.0
20260905215512 76 351 0.0 0.0 0.00 0.00 0.00 42 1018.0
20260905215012 76 351 0.0 0.0 0.00 0.00 0.00 43 1017.0
20260905214512 76 351 0.0 0.0 0.00 0.00 0.00 44 1018.0
20260905214012 76 350 0.0 0.0 0.00 0.00 0.00 44 1018.0
20260905213513 77 350 0.0 0.0 0.00 0.00 0.00 43 1018.0
20260905213012 77 350 0.0 0.0 0.00 0.00 0.00 43 1018.0
20260905212512 77 350 0.0 0.0 0.00 0.00 0.00 42 1018.0
20260905212012 77 350 0.0 0.0 0.00 0.00 0.00 42 1018.0
20260905211513 77 350 0.0 0.0 0.00 0.00 0.00 42 1018.0
20260905211012 77 350 0.0 0.0 0.00 0.00 0.00 42 1018.0
20260905210512 77 350 0.0 0.0 0.00 0.00 0.00 42 1017.0
20260905210012 77 350 0.0 0.0 0.00 0.00 0.00 41 1018.0
20260905205512 78 350 0.0 0.0 0.00 0.00 0.00 41 1018.0
20260905205012 78 350 0.0 0.0 0.00 0.00 0.00 41 1018.0
20260905204512 78 350 0.0 0.0 0.00 0.00 0.00 40 1018.0
20260905204012 78 350 0.0 0.0 0.00 0.00 0.00 41 1018.0
20260905203512 78 350 0.0 0.0 0.00 0.00 0.00 41 1018.0
20260905203012 79 350 0.0 0.0 0.00 0.00 0.00 40 1018.0
20260905202512 79 350 0.0 0.0 0.00 0.00 0.00 40 1018.0
20260905202012 79 350 0.0 0.0 0.00 0.00 0.00 39 1018.0
20260905201512 80 350 0.0 0.0 0.00 0.00 0.00 38 1018.0
20260905201012 80 350 0.0 0.0 0.00 0.00 0.00 39 1018.0
20260905200513 80 350 0.0 0.0 0.00 0.00 0.00 38 1018.0
20260905200012 80 350 0.0 0.0 0.00 0.00 0.00 38 1018.0
20260905195512 80 350 0.0 0.0 0.00 0.00 0.00 38 1018.0
20260905195012 81 350 0.0 0.0 0.00 0.00 0.00 37 1018.0
20260905194513 81 350 0.0 0.0 0.00 0.00 0.00 38 1018.0
20260905194012 80 350 0.0 0.0 0.00 0.00 0.00 38 1018.0
20260905193512 80 350 0.0 0.0 0.00 0.00 0.00 38 1018.0
20260905193012 80 350 0.0 0.0 0.00 0.00 0.00 38 1018.0
20260905192513 80 350 0.0 0.0 0.00 0.00 0.00 38 1018.0
20260905192014 80 350 0.0 0.0 0.00 0.00 0.00 39 1018.0
20260905191512 80 350 0.0 0.0 0.00 0.00 0.00 38 1018.0
20260905191012 81 350 0.0 0.0 0.00 0.00 0.00 37 1018.0
20260905190512 81 350 0.0 0.0 0.00 0.00 0.00 37 1018.0
20260905190012 81 350 0.0 0.0 0.00 0.00 0.00 37 1018.0
20260905185512 81 350 0.0 0.0 0.00 0.00 0.00 37 1018.0
20260905185012 81 350 0.0 0.0 0.00 0.00 0.00 37 1018.0
20260905184512 82 350 0.0 0.0 0.00 0.00 0.00 37 1018.0
20260905184012 82 350 0.0 0.0 0.00 0.00 0.00 36 1018.0
20260905183512 83 350 0.0 0.0 0.00 0.00 0.00 36 1018.0
20260905183012 83 359 0.0 0.0 0.00 0.00 0.00 36 1017.0
20260905182512 83 359 0.0 0.0 0.00 0.00 0.00 35 1018.0
20260905182012 83 356 0.0 0.0 0.00 0.00 0.00 35 1017.0
20260905181512 83 356 0.0 0.0 0.00 0.00 0.00 35 1018.0
20260905181012 83 91 0.0 0.0 0.00 0.00 0.00 35 1017.0
20260905180512 83 2 0.0 0.0 0.00 0.00 0.00 35 1017.0
20260905180012 83 1 0.0 0.0 0.00 0.00 0.00 35 1017.0
20260905175512 83 1 0.0 0.0 0.00 0.00 0.00 35 1017.0
20260905175012 84 2 0.0 0.0 0.00 0.00 0.00 35 1017.0
20260905174512 84 1 0.0 0.0 0.00 0.00 0.00 35 1017.0
20260905174012 84 1 0.0 0.0 0.00 0.00 0.00 35 1017.0
20260905173512 84 1 0.0 0.0 0.00 0.00 0.00 34 1017.0
20260905173012 85 1 0.9 0.9 0.00 0.00 0.00 34 1017.0
20260905172512 85 354 2.6 2.6 0.00 0.00 0.00 34 1017.0
20260905172012 85 4 0.0 0.0 0.00 0.00 0.00 33 1017.0
20260905171512 86 6 0.0 0.0 0.00 0.00 0.00 33 1017.0
20260905171012 87 354 0.0 0.0 0.00 0.00 0.00 32 1017.0
20260905170512 87 98 0.0 0.0 0.00 0.00 0.00 31 1017.0
20260905170015 87 60 0.0 0.0 0.00 0.00 0.00 31 1017.0
20260905165512 87 102 2.6 2.6 0.00 0.00 0.00 31 1017.0
20260905165012 88 60 0.9 0.9 0.00 0.00 0.00 31 1017.0
20260905164517 88 66 1.7 1.7 0.00 0.00 0.00 31 1017.0
20260905164012 88 332 0.0 0.0 0.00 0.00 0.00 31 1017.0
20260905163513 89 74 0.0 0.0 0.00 0.00 0.00 31 1017.0
20260905163012 89 73 1.7 1.7 0.00 0.00 0.00 30 1017.0
20260905162512 90 70 0.0 0.0 0.00 0.00 0.00 30 1017.0
20260905162014 90 96 0.0 0.0 0.00 0.00 0.00 30 1017.0
20260905161512 90 360 2.6 2.6 0.00 0.00 0.00 29 1017.0
20260905161012 91 95 0.0 0.0 0.00 0.00 0.00 29 1017.0
20260905160512 91 112 0.0 0.0 0.00 0.00 0.00 29 1017.0
20260905160012 92 54 0.0 0.0 0.00 0.00 0.00 28 1017.0
20260905155513 91 54 2.6 2.6 0.00 0.00 0.00 28 1017.0
20260905155012 90 70 0.9 0.9 0.00 0.00 0.00 28 1017.0
20260905154512 89 36 0.0 0.0 0.00 0.00 0.00 28 1017.0
20260905154012 89 22 2.6 3.5 0.00 0.00 0.00 29 1017.0
20260905153512 89 342 0.0 0.0 0.00 0.00 0.00 28 1017.0
20260905153012 90 42 0.0 0.0 0.00 0.00 0.00 28 1017.0
20260905152512 90 348 0.0 0.0 0.00 0.00 0.00 29 1017.0
20260905152012 91 5 0.0 0.0 0.00 0.00 0.00 28 1017.0
20260905151512 91 93 0.0 0.0 0.00 0.00 0.00 28 1017.0
20260905151012 91 78 2.6 2.6 0.00 0.00 0.00 28 1017.0
20260905150513 90 55 1.7 1.7 0.00 0.00 0.00 28 1017.0
20260905150013 90 93 4.3 4.3 0.00 0.00 0.00 29 1017.0
20260905145512 90 345 0.0 0.0 0.00 0.00 0.00 28 1017.0
20260905145012 91 314 7.8 7.8 0.00 0.00 0.00 29 1017.0
20260905144512 90 330 3.5 3.5 0.00 0.00 0.00 27 1017.0
20260905144012 91 174 7.0 7.8 0.00 0.00 0.00 27 1017.0
20260905143512 91 348 2.6 2.6 0.00 0.00 0.00 27 1017.0
20260905143012 91 44 1.7 1.7 0.00 0.00 0.00 28 1017.0
20260905142512 92 42 0.9 0.9 0.00 0.00 0.00 26 1017.0
20260905142014 91 42 1.7 1.7 0.00 0.00 0.00 27 1017.0
20260905141512 92 72 1.7 1.7 0.00 0.00 0.00 27 1017.0
20260905141012 92 168 3.5 3.5 0.00 0.00 0.00 27 1017.0
20260905140512 91 162 0.0 0.0 0.00 0.00 0.00 28 1017.0
20260905140012 92 186 0.0 0.0 0.00 0.00 0.00 27 1017.0
20260905135512 92 54 0.0 0.0 0.00 0.00 0.00 25 1017.0
20260905135012 92 360 3.5 3.5 0.00 0.00 0.00 26 1017.0
20260905134512 92 122 2.6 2.6 0.00 0.00 0.00 26 1017.0
20260905134012 92 36 0.0 0.0 0.00 0.00 0.00 25 1017.0
20260905133512 92 120 1.7 1.7 0.00 0.00 0.00 26 1017.0
20260905133012 92 66 4.3 5.2 0.00 0.00 0.00 27 1017.0
20260905132512 91 133 1.7 1.7 0.00 0.00 0.00 27 1017.0
20260905132014 90 144 1.7 1.7 0.00 0.00 0.00 27 1017.0
20260905131512 91 270 0.0 0.0 0.00 0.00 0.00 27 1017.0
20260905131012 91 4 0.0 0.0 0.00 0.00 0.00 28 1017.0
20260905130512 91 120 5.2 6.1 0.00 0.00 0.00 28 1017.0
20260905130012 91 132 0.9 0.9 0.00 0.00 0.00 28 1017.0
20260905125512 91 84 1.7 1.7 0.00 0.00 0.00 28 1017.0
20260905125012 91 102 2.6 3.5 0.00 0.00 0.00 27 1017.0
20260905124513 90 168 3.5 3.5 0.00 0.00 0.00 27 1017.0
20260905124012 90 342 4.3 5.2 0.00 0.00 0.00 29 1017.0
20260905123513 90 62 2.6 2.6 0.00 0.00 0.00 28 1017.0
20260905123013 90 42 2.6 2.6 0.00 0.00 0.00 29 1017.0
20260905122512 90 332 7.0 7.0 0.00 0.00 0.00 29 1018.0
20260905122012 90 24 9.6 11.3 0.00 0.00 0.00 29 1018.0
20260905121513 91 346 1.7 1.7 0.00 0.00 0.00 28 1017.0
20260905121012 90 312 0.0 0.0 0.00 0.00 0.00 28 1017.0
20260905120022 90 282 4.3 5.2 0.00 0.00 0.00 29 1018.0
20260905115512 90 326 3.5 3.5 0.00 0.00 0.00 29 1018.0
20260905115013 91 336 4.3 5.2 0.00 0.00 0.00 29 1018.0
20260905114512 90 60 0.9 0.9 0.00 0.00 0.00 29 1018.0
20260905114012 89 16 2.6 3.5 0.00 0.00 0.00 29 1018.0
20260905113512 91 288 7.8 8.7 0.00 0.00 0.00 29 1018.0
20260905113013 90 306 5.2 6.1 0.00 0.00 0.00 27 1018.0
20260905112513 90 288 4.3 4.3 0.00 0.00 0.00 28 1018.0
20260905112012 90 330 4.3 5.2 0.00 0.00 0.00 29 1018.0
20260905111512 90 51 5.2 6.1 0.00 0.00 0.00 28 1018.0
20260905111012 91 276 3.5 3.5 0.00 0.00 0.00 28 1018.0
20260905110512 90 264 2.6 3.5 0.00 0.00 0.00 27 1018.0
20260905110012 89 72 0.0 0.0 0.00 0.00 0.00 28 1018.0
20260905105512 90 84 3.5 3.5 0.00 0.00 0.00 28 1018.0
20260905105012 89 37 0.0 0.0 0.00 0.00 0.00 29 1018.0
20260905104512 90 314 4.3 5.2 0.00 0.00 0.00 28 1018.0
20260905104012 91 16 7.8 7.8 0.00 0.00 0.00 27 1018.0
20260905103512 90 330 4.3 4.3 0.00 0.00 0.00 27 1018.0
20260905103012 89 101 1.7 1.7 0.00 0.00 0.00 29 1018.0
20260905102512 90 32 2.6 2.6 0.00 0.00 0.00 27 1018.0
20260905102012 90 120 0.0 0.0 0.00 0.00 0.00 28 1018.0
20260905101512 89 282 1.7 1.7 0.00 0.00 0.00 29 1018.0
20260905101012 89 306 4.3 4.3 0.00 0.00 0.00 29 1018.0
20260905100512 89 336 5.2 6.1 0.00 0.00 0.00 29 1018.0
20260905100013 90 56 2.6 2.6 0.00 0.00 0.00 29 1018.0
20260905095512 89 360 2.6 2.6 0.00 0.00 0.00 28 1018.0
20260905095013 90 360 9.6 13.0 0.00 0.00 0.00 28 1018.0
20260905094512 89 162 2.6 2.6 0.00 0.00 0.00 29 1018.0
20260905094013 88 325 0.0 0.0 0.00 0.00 0.00 30 1018.0
20260905093512 89 25 7.0 7.8 0.00 0.00 0.00 29 1018.0
20260905093012 89 6 2.6 2.6 0.00 0.00 0.00 29 1018.0
20260905092513 88 65 0.9 0.9 0.00 0.00 0.00 29 1018.0
20260905092013 89 336 4.3 5.2 0.00 0.00 0.00 29 1018.0
20260905091512 88 342 2.6 2.6 0.00 0.00 0.00 30 1018.0
20260905091013 87 112 2.6 3.5 0.00 0.00 0.00 30 1018.0
20260905090513 88 327 5.2 6.1 0.00 0.00 0.00 29 1018.0